Tracking 18851 objects as of 25-Nov-2017
HD Live streaming from Space Station
objects crossing your sky now

FTV 3502

Track FTV 3502 now!
10-day predictions
FTV 3502 is classified as:


NORAD ID: 369
Int'l Code: 1962-039A
Perigee: 560.0 km
Apogee: 691.2 km
Inclination: 98.5 °
Period: 97.1 minutes
Semi major axis: 6996 km
RCS: 0.3492 m2 (medium)
Launch date: August 23, 1962
Source: United States (US)
Launch site: AIR FORCE WESTERN TEST RANGE (AFWTR)
aabbcc
Your satellite tracking list
Your tracking list is empty




NASA's NSSDC Master Catalog

Two Line Element Set (TLE):
1   369U 62039A   17328.58824847 +.00000191 +00000-0 +29193-4 0  9994
2   369 098.5486 154.2098 0093771 122.3316 238.7018 14.83454858951323
Source of the keplerian elements: AFSPC